GW3202 Weather Reports


Display with metric or nautical units.
time (UTC)temp
F
wind
direction
speed
MPH
gust
MPH
rain 1hr
in
rain 24hr
in
rain mn
in
humidity
%
barometer
mb
20260906205004 68 150 5.0 13.0 0.26 0.77 0.77 99 1018.6
20260906204005 67 149 5.0 10.0 0.77 0.77 0.77 99 1018.5
20260906203010 67 124 2.0 12.0 0.77 0.77 0.77 99 1018.6
20260906202005 66 132 6.0 15.0 0.76 0.76 0.76 99 1018.6
20260906200004 63 133 7.0 18.0 0.73 0.73 0.73 99 1018.8
20260906195005 62 179 9.0 44.0 0.51 0.51 0.51 98 1018.8
20260906194004 77 118 3.0 15.0 0.00 0.00 0.00 78 1019.0
20260906193005 78 130 2.0 10.0 0.00 0.00 0.00 70 1018.8
20260906192005 78 148 7.0 10.0 0.00 0.00 0.00 68 1018.8
20260906191003 78 172 5.0 12.0 0.00 0.00 0.00 64 1018.9
20260906190003 78 129 2.0 9.0 0.00 0.00 0.00 64 1018.9
20260906185003 77 154 6.0 9.0 0.00 0.00 0.00 69 1019.0
20260906184003 76 318 2.0 6.0 0.00 0.00 0.00 73 1019.3
20260906183003 75 283 2.0 9.0 0.00 0.00 0.00 74 1019.5
20260906182012 74 282 3.0 7.0 0.00 0.00 0.00 76 1019.6
20260906181005 74 260 3.0 7.0 0.00 0.00 0.00 77 1020.0
20260906180003 69 113 1.0 7.0 0.00 0.00 0.00 81 1020.2
20260906175002 73 287 3.0 8.0 0.00 0.00 0.00 81 1020.5
20260906174003 72 299 3.0 7.0 0.00 0.00 0.00 82 1020.6
20260906173003 71 21 3.0 7.0 0.00 0.00 0.00 84 1020.6
20260906171011 72 0 2.0 10.0 0.00 0.00 0.00 83 1020.5
20260906170002 74 9 5.0 8.0 0.00 0.00 0.00 79 1020.4
20260906165003 75 203 1.0 7.0 0.00 0.00 0.00 75 1020.4
20260906164002 75 235 2.0 7.0 0.00 0.00 0.00 74 1020.3
20260906163003 74 144 3.0 8.0 0.00 0.00 0.00 75 1020.4
20260906161003 73 146 3.0 7.0 0.00 0.00 0.00 76 1020.3
20260906160002 74 266 2.0 5.0 0.00 0.00 0.00 76 1020.2
20260906154003 72 252 2.0 3.0 0.00 0.00 0.00 76 1020.3
20260906153006 71 207 1.0 3.0 0.00 0.00 0.00 79 1020.1
20260906152002 71 77 1.0 3.0 0.00 0.00 0.00 80 1020.0
20260906151002 69 28 2.0 3.0 0.00 0.00 0.00 82 1020.0
20260906150004 70 126 2.0 5.0 0.00 0.00 0.00 83 1020.0
20260906145004 69 161 1.0 3.0 0.00 0.00 0.00 84 1020.1
20260906144003 69 140 3.0 3.0 0.00 0.00 0.00 85 1019.9
20260906143003 66 109 1.0 5.0 0.00 0.00 0.00 89 1020.2
20260906142003 67 332 1.0 5.0 0.00 0.00 0.00 88 1019.9
20260906141003 68 158 2.0 3.0 0.00 0.00 0.00 90 1019.9
20260906140002 66 149 1.0 2.0 0.00 0.00 0.00 94 1020.1
20260906135003 65 278 0.0 2.0 0.00 0.00 0.00 95 1019.8
20260906134003 65 2 0.0 2.0 0.00 0.00 0.00 95 1019.9
20260906133003 64 18 0.0 2.0 0.00 0.00 0.00 96 1020.0
20260906132003 64 314 0.0 2.0 0.00 0.00 0.00 97 1020.1
20260906131004 64 246 1.0 3.0 0.00 0.00 0.00 96 1020.0
20260906130003 65 263 2.0 6.0 0.00 0.00 0.00 95 1019.8
20260906125003 65 258 3.0 6.0 0.00 0.00 0.00 94 1019.6
20260906124003 65 356 1.0 5.0 0.00 0.00 0.00 94 1019.6
20260906123003 65 261 1.0 8.0 0.00 0.00 0.00 95 1019.5
20260906122003 65 49 2.0 2.0 0.00 0.00 0.00 95 1019.6
20260906121003 65 18 1.0 3.0 0.00 0.00 0.00 95 1019.2
20260906120002 65 125 2.0 3.0 0.00 0.00 0.00 95 1019.4
20260906115004 65 168 2.0 3.0 0.00 0.00 0.00 96 1019.1
20260906114003 65 245 1.0 3.0 0.00 0.00 0.00 96 1019.2
20260906113003 65 232 2.0 3.0 0.00 0.00 0.00 95 1019.1
20260906112003 65 301 2.0 5.0 0.00 0.00 0.00 95 1019.1
20260906110003 66 249 4.0 7.0 0.00 0.00 0.00 93 1019.1
20260906104003 66 327 1.0 2.0 0.00 0.00 0.00 95 1019.1
20260906103004 66 257 1.0 2.0 0.00 0.00 0.00 96 1019.1
20260906102004 66 346 0.0 2.0 0.00 0.00 0.00 96 1019.2
20260906101002 65 119 2.0 5.0 0.00 0.00 0.00 96 1019.1
20260906100004 66 201 1.0 3.0 0.00 0.00 0.00 96 1019.2
20260906095003 65 283 1.0 3.0 0.00 0.00 0.00 96 1019.0
20260906094003 66 272 1.0 3.0 0.00 0.00 0.00 96 1019.0
20260906093003 66 269 2.0 3.0 0.00 0.00 0.00 96 1019.3
20260906092003 66 226 2.0 3.0 0.00 0.00 0.00 95 1019.5
20260906091004 67 3 1.0 3.0 0.00 0.00 0.00 94 1019.6
20260906090003 68 312 2.0 5.0 0.00 0.00 0.00 91 1019.8
20260906085003 67 80 1.0 3.0 0.00 0.00 0.00 87 1019.7
20260906083004 67 151 0.0 3.0 0.00 0.00 0.00 90 1019.6
20260906082003 67 155 3.0 9.0 0.00 0.00 0.00 91 1019.7
20260906081004 66 118 2.0 9.0 0.00 0.00 0.00 95 1019.6
20260906080003 66 284 0.0 2.0 0.00 0.00 0.00 95 1019.9
20260906075004 65 0 1.0 3.0 0.00 0.00 0.00 95 1019.8
20260906074003 65 271 1.0 3.0 0.00 0.00 0.00 95 1019.8
20260906073003 65 270 0.0 2.0 0.00 0.00 0.00 95 1019.9
20260906072003 66 272 1.0 2.0 0.00 0.00 0.00 95 1019.8
20260906071003 66 75 0.0 2.0 0.00 0.00 0.00 95 1019.9
20260906070003 66 14 0.0 2.0 0.00 0.00 0.00 95 1019.9
20260906064003 67 170 1.0 6.0 0.00 0.00 0.00 94 1020.0
20260906063003 67 158 3.0 3.0 0.00 0.00 0.00 94 1019.8
20260906061005 67 112 0.0 3.0 0.00 0.00 0.00 94 1020.0
20260906060004 67 118 0.0 6.0 0.00 0.00 0.00 94 1020.1
20260906054003 68 254 1.0 7.0 0.00 0.00 0.00 93 1020.1
20260906052003 68 154 1.0 3.0 0.00 0.00 0.00 93 1020.2
20260906050003 69 233 1.0 5.0 0.00 0.00 0.00 92 1020.3
20260906045003 69 103 2.0 7.0 0.00 0.00 0.00 92 1020.3
20260906044003 69 150 3.0 5.0 0.00 0.00 0.00 92 1020.4
20260906043003 69 198 2.0 7.0 0.00 0.00 0.00 92 1020.4
20260906042003 69 122 2.0 7.0 0.00 0.00 0.00 93 1020.5
20260906041003 69 203 3.0 10.0 0.00 0.00 0.00 93 1020.4
20260906040004 69 135 2.0 8.0 0.00 0.00 0.00 93 1020.5
20260906035004 69 157 5.0 13.0 0.00 0.00 0.00 93 1020.4
20260906034003 69 143 4.0 12.0 0.00 0.00 0.00 93 1020.1
20260906033003 69 156 6.0 15.0 0.00 0.00 0.00 93 1019.8
20260906032003 69 166 3.0 15.0 0.00 0.00 0.00 93 1019.8
20260906030003 69 139 6.0 17.0 0.00 0.00 0.00 93 1019.7
20260906025003 69 157 7.0 17.0 0.00 0.00 0.00 93 1019.3
20260906024003 69 161 7.0 17.0 0.00 0.00 0.00 92 1019.2
20260906023003 70 118 3.0 16.0 0.00 0.00 0.00 92 1019.3
20260906022003 70 134 10.0 21.0 0.00 0.00 0.00 92 1019.2
20260906021006 70 178 9.0 21.0 0.00 0.00 0.00 93 1018.9
20260906014004 70 138 14.0 22.0 0.00 0.00 0.00 92 1018.3
20260906013003 70 144 6.0 20.0 0.00 0.00 0.00 90 1018.1
20260906012003 71 131 9.0 20.0 0.00 0.00 0.00 90 1018.2
20260906011004 71 126 4.0 20.0 0.00 0.00 0.00 90 1018.2
20260906010004 72 133 6.0 16.0 0.00 0.00 0.00 88 1018.0
20260906005004 72 149 7.0 17.0 0.00 0.00 0.00 87 1018.0
20260906004003 72 151 5.0 16.0 0.00 0.00 0.00 86 1017.6
20260906003003 73 151 3.0 14.0 0.00 0.00 0.00 85 1017.7
20260906001004 74 184 4.0 20.0 0.00 0.00 0.00 84 1017.4
20260906000003 73 195 7.0 20.0 0.00 0.00 0.00 84 1017.5
20260905235004 74 218 10.0 17.0 0.00 0.00 0.00 84 1017.2
20260905233003 74 149 5.0 9.0 0.00 0.00 0.00 82 1017.5
20260905232003 73 278 0.0 3.0 0.00 0.00 0.00 74 1017.5
20260905231003 73 105 1.0 5.0 0.00 0.00 0.00 75 1017.5
20260905230005 72 92 0.0 5.0 0.00 0.00 0.00 75 1017.8
20260905224004 72 272 0.0 6.0 0.00 0.00 0.00 74 1017.8
20260905223003 72 316 3.0 9.0 0.00 0.00 0.00 76 1017.9
20260905222005 74 284 0.0 3.0 0.00 0.00 0.00 76 1017.6
20260905221003 73 47 1.0 9.0 0.00 0.00 0.00 77 1017.6
20260905220003 74 37 3.0 5.0 0.00 0.00 0.00 76 1017.6
20260905215003 74 74 1.0 9.0 0.00 0.00 0.00 76 1017.8
20260905214004 74 7 3.0 9.0 0.00 0.00 0.00 76 1018.3
20260905213005 73 12 3.0 13.0 0.00 0.00 0.00 77 1018.4
20260905212004 76 145 2.0 14.0 0.00 0.00 0.00 78 1017.9
20260905211003 76 159 5.0 15.0 0.00 0.00 0.00 79 1017.6